Wind_Speed
26 27 27 29 30 30 29 29 27 27 27 27 27 28 27 27 26 26 27 27 28 29 30 29 28 28 29 30 31 31 32 32 33 34 34 35 36 37 39 40 40 40 39 39 39 41 40 39 38 37 37 38 40 41 40 36 34 35 38 42 46 49 50 49 45 40 36 37 36 36 37 37 37 39 40 40 40 41 42 43 45 48 50 52 54
28 28 30 32 33 31 30 29 28 28 28 28 28 30 30 29 27 27 27 27 28 29 30 29 29 30 31 32 33 33 33 34 35 36 36 37 37 38 39 39 39 39 39 39 40 41 40 38 36 36 37 39 40 38 35 33 34 37 42 46 49 51 50 46 42 36 31 31 33 33 34 36 36 37 39 39 40 41 42 43 44 46 48 50 53
29 30 32 34 35 34 33 31 30 29 29 29 29 30 32 31 29 27 27 26 27 30 31 30 30 31 33 34 34 34 35 36 37 38 38 39 39 39 39 40 40 40 40 41 41 40 38 36 36 37 38 37 35 34 33 34 37 41 46 49 50 48 46 43 38 33 29 28 29 31 33 34 35 36 38 38 39 40 42 43 44 45 46 48 51
31 32 34 34 35 36 35 34 33 31 29 29 30 31 33 33 30 28 28 28 29 31 32 32 31 32 33 34 34 35 36 37 38 38 38 39 40 40 40 40 40 40 40 40 40 38 37 37 38 39 36 32 30 31 34 37 41 45 48 49 48 45 43 40 36 32 30 28 28 29 31 32 33 35 36 37 38 40 42 42 44 45 46 47 49
33 34 36 35 36 37 35 35 36 34 32 31 31 31 33 33 31 30 29 30 30 31 33 33 32 32 34 34 35 36 37 38 38 38 38 39 39 39 40 40 39 38 38 39 39 38 38 38 39 38 32 28 29 32 37 42 45 47 46 46 45 43 40 38 35 33 32 30 28 28 30 31 31 34 36 36 37 39 41 42 43 45 46 47 48
35 36 36 35 37 40 38 37 37 35 35 35 32 31 33 34 33 31 31 31 30 29 31 32 32 33 34 35 36 37 39 39 39 39 40 41 41 41 40 39 37 37 38 39 39 39 38 37 36 33 30 29 32 36 41 45 45 44 44 44 44 43 40 38 36 35 34 32 30 29 30 31 32 33 36 37 37 39 41 42 43 45 48 48 47
36 37 37 35 37 41 42 40 37 35 36 35 33 33 34 34 33 32 32 30 27 27 30 32 33 34 34 36 37 38 39 40 41 42 43 42 40 38 36 35 37 39 40 39 39 39 39 36 33 31 31 33 36 40 43 44 43 43 43 44 44 42 40 39 38 37 36 34 32 31 31 32 33 35 37 39 40 41 43 44 45 47 50 51 48
37 38 40 40 40 40 40 39 38 36 35 33 33 34 35 35 35 34 32 29 27 29 31 32 33 34 35 37 38 39 40 42 43 43 41 38 36 35 36 38 41 42 41 41 41 41 40 37 34 33 35 37 40 42 43 43 43 43 44 45 44 43 41 40 39 38 37 36 35 35 34 34 36 37 38 40 41 43 45 47 48 49 50 51 50
38 40 42 41 39 40 40 38 38 36 34 33 34 35 36 36 37 35 32 29 29 32 33 33 34 35 37 39 40 40 41 41 40 40 40 38 37 38 40 41 42 42 42 44 44 43 41 39 39 38 39 41 43 44 43 43 42 43 45 46 45 43 42 41 40 38 38 37 36 37 37 37 38 39 39 40 41 42 45 48 50 51 51 51 50
41 43 43 41 40 42 44 41 37 34 35 36 36 37 38 38 37 36 31 29 32 36 36 36 36 37 39 41 40 39 39 39 41 42 41 39 39 40 41 41 42 43 45 46 46 44 42 41 41 42 43 44 45 45 44 43 43 44 46 47 46 44 43 42 40 39 38 38 37 38 39 40 41 40 39 40 42 42 44 47 49 52 53 51 49
42 43 45 46 44 43 42 39 34 31 34 36 38 39 39 38 36 34 31 31 36 38 37 37 37 38 40 41 39 38 39 41 43 43 42 40 39 39 40 42 43 45 46 46 46 44 42 42 43 43 44 44 45 45 44 44 44 45 47 48 47 44 43 42 40 39 39 39 38 38 40 41 42 42 42 42 42 42 43 45 48 51 52 51 47
42 44 46 47 44 40 37 34 32 31 33 36 38 38 38 37 32 28 29 32 36 37 37 38 38 39 40 41 39 38 40 42 43 42 40 39 38 40 42 44 45 45 45 44 43 43 42 42 43 43 43 44 45 45 44 44 45 46 48 49 46 43 42 41 40 39 39 39 38 39 41 42 43 44 45 44 42 42 42 42 46 49 50 49 46
43 44 46 44 40 37 35 34 36 37 37 38 37 35 35 33 27 25 29 32 34 36 38 39 38 38 40 41 40 39 40 42 42 40 37 37 40 44 47 47 47 46 45 43 42 41 41 42 42 42 43 45 46 45 44 44 46 47 49 48 44 41 40 40 39 38 38 38 39 40 42 42 43 45 47 46 43 42 42 40 43 47 46 45 42
43 43 43 40 37 38 38 38 40 41 41 40 36 31 30 27 25 28 32 32 34 37 38 39 38 38 39 40 41 40 40 41 41 39 39 41 45 48 48 48 47 46 45 44 43 42 42 42 42 42 44 46 46 44 43 44 46 48 49 46 41 39 38 38 38 38 38 39 40 41 42 43 44 46 48 49 46 43 41 38 38 42 44 41 39
43 42 42 42 42 42 41 40 39 37 35 33 29 26 26 27 30 33 33 33 35 38 39 38 38 37 39 41 42 42 42 42 40 40 42 45 47 48 48 48 48 47 46 45 45 43 43 43 43 43 44 46 45 43 43 44 46 47 47 43 38 36 36 37 38 37 38 40 41 41 42 43 46 48 50 51 48 44 40 36 34 38 41 39 38
44 45 46 47 45 42 39 39 37 32 28 25 23 25 29 31 32 32 32 34 37 38 38 37 37 38 40 42 43 44 43 42 40 42 45 47 48 48 49 49 49 49 48 47 46 45 44 44 43 44 45 44 43 42 43 43 45 46 44 39 34 33 35 36 36 37 38 39 40 40 41 43 46 49 51 52 49 44 39 34 32 35 39 39 38
45 47 49 50 46 43 41 39 34 29 26 25 26 29 32 32 32 32 32 35 36 36 36 37 37 39 41 42 44 42 41 41 44 46 48 48 49 50 51 52 53 53 51 49 47 46 44 44 44 44 44 42 41 42 43 43 44 44 41 35 32 32 34 34 35 36 37 38 39 39 39 42 45 49 52 52 48 43 39 35 31 32 37 39 38
45 46 50 52 48 44 42 40 38 37 36 32 30 31 33 34 32 31 32 34 35 36 37 37 38 40 41 43 43 41 42 45 48 48 49 50 52 53 55 56 56 55 52 50 47 46 45 44 44 43 41 40 40 42 43 42 43 42 37 32 31 32 33 33 33 34 35 36 36 37 38 41 45 48 51 52 48 42 39 37 32 29 35 39 39
48 50 53 52 45 40 41 42 41 40 38 34 33 35 36 34 32 31 32 34 35 36 36 36 38 40 41 43 44 44 46 48 48 49 50 53 55 56 57 57 56 54 51 48 46 45 44 43 43 41 38 38 40 42 43 42 41 38 34 31 31 31 31 31 32 32 32 33 33 34 37 39 43 47 50 51 47 41 38 36 32 29 32 37 39
50 50 47 40 34 32 37 41 40 39 37 36 37 37 36 33 32 33 33 32 33 34 36 37 39 41 42 43 44 46 47 47 48 50 52 54 56 57 57 55 53 50 48 45 44 43 42 41 40 38 37 38 40 41 41 41 38 34 32 31 31 30 29 30 30 30 29 29 30 32 35 38 41 46 48 49 47 41 35 31 30 29 30 33 37
49 45 36 32 33 31 34 38 38 36 35 36 37 37 35 34 34 33 32 31 34 36 38 39 40 42 42 43 44 46 46 46 49 52 54 55 56 55 54 51 49 47 45 43 42 40 39 39 38 37 37 39 40 40 39 37 34 31 30 30 29 29 28 29 29 29 27 27 28 31 34 36 40 44 46 46 46 41 33 27 26 27 27 27 32
47 40 33 33 39 38 35 32 28 26 27 31 34 37 38 36 34 33 33 34 37 39 40 41 43 43 43 43 45 46 46 48 50 53 54 54 53 52 50 47 46 45 43 41 40 38 37 37 37 37 38 38 38 37 36 33 30 28 28 28 27 28 28 28 28 27 26 26 28 31 34 36 39 42 43 43 43 39 31 26 25 24 23 22 24
46 41 35 35 37 37 32 23 18 19 23 27 31 36 38 35 32 33 35 37 40 42 42 43 44 44 43 44 46 47 48 49 51 52 52 51 50 48 47 45 45 43 42 40 39 37 36 36 37 38 38 36 36 35 33 29 26 25 26 26 27 27 27 27 27 26 25 26 28 31 33 35 38 41 41 40 40 36 29 26 26 22 19 17 17
45 42 40 39 40 41 35 23 16 19 26 28 29 32 33 32 32 35 37 39 41 43 44 44 44 44 44 45 46 47 48 49 50 51 50 49 48 46 44 44 43 42 40 39 37 36 36 37 38 38 36 34 33 32 29 25 24 24 25 25 26 26 27 26 26 25 25 26 28 31 33 35 38 40 40 38 36 32 26 23 24 22 17 16 17
44 42 42 42 42 44 39 28 20 25 30 30 29 29 30 31 33 35 38 41 43 44 44 44 44 43 44 46 46 47 48 49 50 50 49 47 45 43 43 42 41 39 38 37 36 35 36 37 37 36 33 32 31 29 26 24 24 24 24 24 25 26 26 26 25 25 25 26 28 30 33 35 37 39 40 37 34 30 25 21 21 19 17 17 19
42 41 41 40 41 44 43 34 26 30 35 36 34 30 29 31 33 35 39 42 44 45 45 44 44 44 45 46 46 47 48 49 49 49 47 45 43 42 41 40 38 37 35 35 35 35 36 36 35 32 31 30 30 28 25 24 24 23 23 24 24 25 26 25 25 25 25 26 28 30 32 34 36 38 39 37 34 30 27 24 21 19 19 21 24
41 40 39 36 37 42 42 37 32 34 40 43 38 29 28 31 34 37 41 43 44 45 45 45 45 45 46 47 47 48 49 48 48 47 45 43 41 40 39 37 35 34 33 34 34 35 35 34 31 30 30 30 29 27 25 24 24 23 23 23 24 25 26 25 25 26 26 26 28 30 32 34 35 36 37 37 34 30 27 27 23 18 17 20 24
43 40 37 32 28 27 30 33 34 38 42 43 35 28 29 34 37 39 42 44 45 47 47 46 46 47 47 47 47 47 48 47 46 45 43 41 39 38 37 35 33 32 32 33 33 33 33 31 29 28 30 30 29 27 25 24 23 23 23 23 24 25 25 25 25 26 27 27 28 29 31 33 34 35 36 37 35 29 26 28 24 15 12 14 17
43 39 35 31 25 22 25 31 35 39 42 40 32 30 33 37 39 43 46 47 48 48 48 47 47 47 47 46 46 47 47 46 45 43 41 39 38 37 36 34 32 32 32 33 33 33 32 30 28 29 30 31 29 26 24 23 23 23 23 23 24 25 25 25 25 27 27 28 28 29 30 32 33 34 35 35 35 30 24 25 23 13 11 11 13
42 38 35 33 30 29 32 38 42 44 44 40 34 34 38 43 45 47 48 48 48 47 46 46 46 46 46 46 46 47 46 45 43 41 39 38 38 36 35 34 32 31 32 32 33 33 32 30 29 29 31 30 28 26 24 23 23 23 23 23 24 24 24 24 25 26 27 27 28 29 29 30 31 33 34 33 35 31 23 20 20 11 10 12 12
39 37 36 37 37 39 41 43 45 45 42 39 38 41 45 47 47 47 46 46 45 45 44 45 46 46 46 46 46 46 45 43 41 39 37 37 37 36 35 34 32 31 31 32 33 33 33 31 29 29 30 29 26 24 23 23 23 24 24 23 23 24 24 24 24 25 25 26 27 27 28 30 31 32 33 32 33 31 23 17 17 11 7 12 13
38 39 39 40 42 44 44 43 43 42 41 42 45 48 47 46 45 45 44 44 45 45 45 45 46 46 45 45 46 46 43 41 39 38 37 37 37 36 35 34 33 31 31 31 32 33 33 32 30 29 29 27 24 22 23 23 24 25 25 24 24 24 23 23 24 24 24 25 26 26 27 29 30 31 32 32 31 31 25 16 13 12 6 11 14
41 42 42 43 43 44 44 44 44 44 45 47 49 47 45 44 44 43 44 45 45 45 45 45 45 45 44 45 45 44 41 39 38 37 37 36 36 35 34 34 33 32 31 31 31 31 32 32 30 29 28 26 23 22 22 24 25 26 26 25 25 24 24 24 24 24 24 25 25 26 26 27 28 29 31 31 30 30 27 18 11 10 8 8 13
43 44 45 45 45 44 44 44 44 45 47 48 46 44 43 43 43 43 44 45 45 45 45 45 45 44 44 45 44 43 40 38 37 37 36 36 35 35 34 33 32 31 30 30 30 30 30 30 30 28 27 26 24 23 23 24 25 26 26 25 25 25 25 24 24 24 25 25 25 25 25 25 26 27 29 30 29 29 28 22 13 9 8 6 10
46 45 45 45 44 43 42 41 42 44 45 45 44 43 43 43 43 44 44 45 45 46 47 46 45 44 45 45 44 42 40 38 37 36 36 35 34 34 33 32 31 30 29 29 29 30 30 29 29 28 27 26 25 24 24 24 24 25 26 26 26 25 25 25 24 24 25 25 25 25 24 24 25 26 27 28 28 27 26 25 18 10 7 6 6
45 45 45 45 43 41 39 39 40 41 41 42 42 42 43 43 44 45 45 45 47 48 47 46 45 45 45 44 43 42 40 38 37 36 35 34 34 33 32 31 30 29 28 28 28 29 29 29 29 28 27 26 25 24 24 23 23 22 23 25 26 26 25 25 24 24 24 25 24 23 23 23 24 25 25 26 27 25 24 24 22 15 7 7 9
45 45 44 43 41 40 40 40 40 39 39 41 41 41 42 43 44 45 46 47 48 48 46 46 46 46 46 45 44 42 40 38 37 36 35 34 33 32 31 30 29 28 28 27 27 28 28 29 29 28 27 26 25 24 24 23 22 20 20 22 24 25 25 25 24 24 24 25 24 23 23 22 23 24 25 25 26 25 24 23 22 19 11 4 9
42 41 41 40 39 39 40 40 39 38 39 41 40 40 42 44 45 47 49 49 48 47 46 47 47 47 46 45 44 42 40 38 37 36 35 34 34 33 32 30 29 28 27 27 26 26 27 28 28 28 27 25 24 23 23 23 22 21 20 20 21 22 23 24 24 24 24 24 24 23 23 22 22 23 23 24 24 24 23 22 21 20 16 8 3
40 39 39 39 39 39 40 40 39 39 40 41 41 43 45 47 48 49 49 49 48 48 48 48 48 48 46 45 43 41 38 37 36 35 35 34 34 34 33 31 29 28 28 27 26 26 26 26 27 27 27 26 24 23 23 23 22 21 21 21 21 21 21 22 23 24 24 24 23 23 22 22 21 21 22 22 22 22 22 21 20 19 17 13 7
37 37 38 39 40 39 38 39 41 41 42 43 45 46 48 49 49 49 49 49 49 50 49 48 47 45 44 42 40 38 36 36 35 35 34 34 34 34 33 32 30 29 28 27 26 26 25 25 26 26 26 26 25 24 23 23 21 21 21 21 21 21 21 22 22 23 24 24 23 23 22 22 21 21 21 22 22 21 21 20 20 18 16 14 12
41 42 42 42 41 40 40 42 44 45 45 46 47 47 49 49 50 50 50 50 50 49 47 45 43 41 40 38 37 35 35 35 35 35 34 34 34 34 33 32 30 29 29 28 27 26 26 26 26 26 26 26 26 25 24 23 21 20 20 20 20 20 20 21 22 23 24 24 24 23 23 22 22 22 21 21 21 21 20 19 19 18 17 15 13
46 46 46 45 43 42 43 44 45 45 45 45 46 47 48 48 48 48 48 48 47 46 44 42 41 39 38 36 35 35 35 35 35 35 35 34 33 33 33 32 31 30 29 28 27 27 27 27 27 26 26 26 26 26 25 24 23 21 20 20 20 19 19 20 20 21 23 23 24 23 23 23 22 22 22 21 21 21 20 19 19 18 17 16 14
46 45 45 44 43 43 43 43 42 43 43 44 45 46 45 45 45 45 45 44 43 43 42 41 40 38 37 37 36 35 35 35 35 35 35 34 33 32 32 32 31 31 30 29 28 28 28 28 28 27 27 27 26 26 26 25 24 23 22 21 21 20 21 21 21 21 22 23 23 23 24 23 23 22 22 22 21 21 21 20 19 18 17 17 15
44 43 42 42 42 42 42 41 41 42 42 43 43 42 42 42 42 41 40 39 39 39 39 38 38 37 36 36 35 35 35 35 36 36 36 35 33 31 31 31 31 30 30 29 28 28 28 28 28 28 27 27 27 27 27 26 26 26 25 24 23 22 22 23 23 23 23 23 23 24 24 24 23 23 23 22 22 21 21 21 20 18 17 17 16
43 41 39 40 40 40 39 39 40 40 40 40 40 40 39 39 38 37 36 36 36 35 35 34 34 34 34 34 34 35 35 35 36 36 37 36 34 32 30 30 30 29 29 28 28 28 28 28 28 28 28 28 28 28 28 28 28 28 27 26 25 25 24 24 24 24 24 24 24 25 25 24 24 24 24 23 22 21 21 21 21 20 18 17 16
41 40 39 38 38 37 37 38 38 39 39 38 38 38 37 36 35 34 34 34 34 34 33 32 32 32 33 33 34 35 34 34 35 36 37 37 35 32 31 30 30 29 28 27 27 27 27 28 28 28 29 29 29 29 29 29 29 29 29 28 28 27 26 26 25 25 25 26 26 26 26 26 25 25 25 24 23 22 22 21 21 21 20 19 17
36 37 37 37 37 37 37 38 37 37 37 36 36 35 34 33 32 31 32 32 33 33 33 32 32 33 33 34 35 35 34 33 33 34 36 36 35 32 30 30 29 28 27 27 27 27 27 27 28 28 29 29 29 30 30 30 30 30 30 30 30 29 29 28 27 26 26 26 26 27 27 27 26 26 26 25 24 23 22 22 21 21 21 20 19
34 35 35 35 35 36 35 35 34 34 34 33 32 31 30 30 30 30 31 32 33 33 34 33 33 34 34 34 34 34 33 32 32 33 34 34 33 31 29 28 27 26 26 26 26 27 27 27 28 28 29 29 30 30 30 31 31 31 31 31 31 31 30 29 28 28 27 27 27 27 27 27 27 27 27 26 25 25 24 23 22 21 21 21 21
34 34 35 35 34 33 32 31 31 31 31 31 30 29 29 29 30 31 32 32 33 33 33 33 33 34 34 34 33 32 32 31 31 31 32 31 30 28 26 25 25 25 25 26 27 27 27 27 28 28 29 30 30 30 30 30 30 29 29 29 29 29 30 29 29 28 27 27 27 27 27 28 27 27 27 27 26 26 25 24 23 22 21 21 21
34 33 33 32 31 30 30 30 30 31 31 30 30 30 30 30 30 31 31 32 33 33 33 34 34 34 34 33 32 32 31 30 29 30 29 28 27 26 25 25 25 25 25 26 27 27 27 27 28 28 29 29 29 28 27 26 25 25 25 25 25 26 26 26 26 26 25 25 26 25 26 27 27 27 27 26 26 26 26 25 24 23 22 22 22
31 29 29 28 28 28 29 29 30 30 30 30 30 30 30 30 30 30 31 32 34 34 35 35 35 35 34 34 33 32 31 30 29 28 28 27 26 25 26 26 26 26 26 26 27 27 27 27 27 27 27 27 26 24 22 21 20 20 20 20 21 21 22 22 22 21 21 22 23 23 23 24 25 25 25 25 25 26 25 25 24 24 23 22 22
Wind_Direction
289 288 286 282 278 275 277 280 283 285 285 284 283 282 283 284 285 286 285 282 283 287 294 300 303 305 305 305 305 305 305 305 305 305 305 306 307 308 308 309 309 309 310 310 310 309 309 309 309 309 310 312 313 312 312 312 314 317 318 318 317 315 311 307 302 298 293 289 283 274 270 269 268 267 265 265 267 268 268 266 263 258 253 248 244
287 285 283 281 279 276 278 283 284 286 286 285 283 284 284 284 284 285 284 282 284 289 296 301 304 305 305 305 305 306 306 306 306 306 306 307 307 307 308 308 308 308 310 311 311 311 310 310 310 311 312 313 312 310 308 309 313 316 319 319 317 313 310 307 304 301 296 290 285 278 272 270 268 268 268 266 265 266 266 266 266 263 259 253 247
286 287 284 283 283 280 280 282 282 282 284 284 283 283 283 283 283 284 283 283 289 296 300 303 304 305 306 306 307 308 307 307 307 307 307 307 306 306 308 308 308 309 312 313 312 312 311 311 312 312 312 311 307 304 304 308 312 317 319 318 314 311 308 307 304 301 297 291 286 281 278 275 273 272 271 270 269 267 266 266 265 264 263 258 252
291 292 288 286 283 279 275 276 279 279 278 279 279 279 280 280 279 279 280 285 292 298 300 302 303 304 305 307 307 307 307 307 306 306 305 305 305 306 308 308 309 312 314 314 313 311 311 312 312 313 311 306 300 300 304 310 314 317 317 314 311 309 308 305 302 300 298 293 286 281 278 276 275 275 274 273 273 272 270 268 267 265 263 261 256
297 295 291 286 279 274 273 273 274 275 273 274 277 276 277 277 275 276 281 286 289 293 298 301 301 302 305 307 307 307 306 305 304 304 303 303 305 307 308 308 309 312 316 318 317 315 312 311 311 312 308 299 296 301 307 312 314 314 312 310 309 308 306 302 300 298 298 294 287 281 279 277 276 276 276 274 273 272 272 271 270 269 265 261 257
302 297 296 292 280 273 272 271 270 270 272 276 277 274 273 275 276 278 283 286 287 292 298 299 299 302 305 306 306 305 304 303 303 302 302 304 306 307 307 306 308 312 316 319 320 318 315 312 310 309 306 300 299 304 309 310 311 310 309 308 307 306 303 300 297 297 297 295 290 284 281 280 279 279 278 278 275 272 271 271 272 272 269 264 258
302 297 296 293 280 270 269 269 270 272 275 279 277 272 273 276 276 279 282 285 289 295 299 298 298 302 304 305 304 303 302 303 302 302 303 307 311 311 309 308 309 313 316 318 319 318 316 313 309 308 307 305 304 306 308 308 308 307 306 305 305 303 300 297 295 295 296 296 293 289 286 284 283 281 280 280 279 278 276 273 272 271 269 266 260
299 295 292 288 280 274 273 272 272 274 276 281 281 278 278 279 277 277 279 282 290 298 300 299 299 302 304 303 302 302 303 303 302 303 306 310 315 314 311 309 310 313 316 317 318 316 312 308 306 305 305 304 305 307 307 307 306 305 303 302 302 300 297 295 294 294 294 295 295 293 291 289 286 284 284 284 283 282 281 278 274 269 267 265 261
297 293 292 289 283 279 278 273 269 267 271 283 288 284 282 280 276 276 279 281 289 298 301 299 300 302 302 301 302 304 305 305 307 308 309 310 312 312 310 309 311 313 315 316 317 315 310 305 302 301 302 303 306 306 306 305 303 302 301 301 300 298 295 293 293 293 294 295 295 294 292 290 288 287 287 288 286 283 281 279 276 272 268 264 262
298 296 295 293 287 281 277 270 264 264 271 284 289 283 280 279 276 277 280 284 291 296 298 298 300 302 301 302 305 307 306 308 310 310 308 307 309 311 312 312 312 312 313 314 315 314 310 305 302 301 301 303 304 305 304 303 302 300 299 299 299 298 294 292 292 292 294 295 295 294 292 291 291 291 291 290 288 284 281 279 276 273 269 265 261
300 297 295 293 287 280 273 265 262 270 277 282 282 279 278 277 276 278 283 288 291 292 294 297 298 299 301 304 307 307 306 307 309 308 307 306 307 310 312 312 311 311 312 313 313 312 309 305 302 301 301 301 303 303 302 302 301 300 299 298 299 297 293 291 291 292 294 296 296 294 293 292 293 294 294 292 290 287 284 282 278 273 269 265 259
297 294 294 292 285 279 276 268 266 274 278 278 279 278 275 274 276 282 288 289 289 289 291 294 296 299 303 306 307 306 305 306 308 308 306 304 305 309 312 312 312 312 312 312 311 310 308 305 302 301 300 301 302 302 302 302 301 300 298 298 299 297 292 290 290 292 294 296 295 294 294 295 296 297 296 295 293 290 287 285 281 275 270 265 257
296 296 298 295 285 281 282 276 272 277 282 285 286 280 274 274 279 286 288 288 287 288 291 293 297 301 303 305 306 306 305 306 309 309 307 304 306 310 313 313 313 312 312 311 311 310 307 305 302 300 300 301 301 301 301 302 301 299 298 300 299 295 291 290 290 292 294 295 295 295 297 297 298 298 299 299 298 294 290 287 281 275 269 263 255
298 299 301 298 289 285 284 281 281 284 286 287 286 279 273 274 279 284 288 289 289 290 292 294 297 300 302 304 307 307 307 308 310 311 309 308 309 311 313 313 312 312 312 312 312 311 308 305 303 300 299 300 300 300 301 301 300 299 299 300 297 292 291 291 291 293 295 296 296 298 300 301 301 302 302 302 302 299 293 286 277 270 266 261 251
297 298 296 293 288 287 286 284 285 286 283 280 277 276 277 279 280 284 289 292 291 290 290 293 296 299 303 306 308 308 309 310 311 312 311 311 312 312 313 313 313 313 314 314 313 311 307 304 302 299 299 299 299 300 300 301 300 299 299 298 295 292 292 292 292 294 296 296 298 301 303 305 305 305 305 305 305 302 295 286 275 266 261 256 247
296 297 294 289 286 285 283 283 283 281 277 273 273 282 289 288 284 285 288 289 287 287 290 294 298 302 305 307 308 309 309 308 311 313 313 312 313 314 314 315 315 316 316 315 313 309 305 302 300 299 299 299 299 300 300 300 299 297 298 297 294 293 294 294 294 294 295 296 300 304 306 307 308 308 308 308 308 305 296 287 279 268 257 250 242
297 295 292 289 286 282 279 278 277 275 277 281 284 288 291 289 286 285 285 284 284 289 294 297 301 304 306 308 309 309 308 309 312 313 313 314 316 317 317 318 318 317 316 314 311 307 303 300 299 299 299 299 300 300 300 299 297 295 297 297 294 293 294 294 294 293 295 299 303 306 308 310 312 312 312 312 312 308 298 288 283 271 257 247 239
295 294 292 289 283 278 275 272 268 269 277 285 289 288 287 286 286 285 283 285 289 293 296 298 302 305 307 308 309 309 309 311 313 313 314 317 319 319 319 318 317 316 315 313 310 305 302 300 300 300 301 301 300 299 299 298 295 295 297 297 294 293 293 293 292 294 299 303 305 307 310 313 316 317 316 315 314 310 301 291 284 271 256 247 238
293 293 292 286 276 271 272 271 267 269 276 283 287 287 285 284 285 285 285 288 291 293 296 299 303 306 307 309 310 311 312 312 313 314 316 319 319 318 317 316 315 315 313 311 308 304 302 302 301 302 302 301 300 299 298 297 295 295 296 296 294 293 292 291 292 296 302 304 304 308 312 316 319 320 319 317 315 311 304 294 286 274 259 250 242
293 295 292 279 265 268 276 275 270 271 276 282 286 285 283 282 282 282 284 288 291 297 302 304 305 307 309 310 311 312 311 311 312 315 318 318 317 316 315 315 314 313 312 310 307 304 303 303 303 303 302 300 299 299 298 297 295 294 294 294 293 293 292 293 295 300 302 301 303 308 312 317 320 321 321 319 316 313 306 296 290 283 271 258 247
293 298 294 272 261 273 286 284 278 276 280 285 286 283 279 277 277 279 283 288 294 301 305 305 307 310 311 309 308 310 310 311 315 317 317 316 315 314 313 313 313 313 312 310 308 306 306 305 304 303 301 300 300 299 298 297 295 293 292 293 293 292 292 295 299 302 301 300 304 308 312 318 322 323 322 320 316 314 308 299 294 290 282 268 251
291 297 297 282 272 277 286 287 283 286 292 293 288 281 276 274 276 280 284 288 294 300 304 305 307 309 308 305 306 309 312 313 315 315 314 313 313 313 313 313 313 313 312 311 310 310 309 306 303 301 301 301 300 299 298 297 294 292 292 292 292 292 294 297 301 301 300 301 305 309 313 319 323 325 325 322 316 313 309 303 299 293 284 273 254
291 295 299 295 286 281 282 279 278 294 307 306 295 284 278 277 280 282 284 287 292 297 301 303 304 305 305 305 307 310 312 312 312 312 312 313 313 312 313 313 314 314 314 314 313 312 309 305 302 301 302 302 301 300 299 297 294 292 292 291 291 293 296 300 302 301 299 301 306 310 315 321 325 327 328 326 319 314 311 306 300 292 279 266 247
294 298 301 299 291 283 275 261 264 301 318 319 307 291 281 280 281 281 283 286 290 294 298 301 303 304 306 306 307 309 309 310 311 312 313 313 312 312 313 314 315 315 316 315 314 311 307 303 302 303 304 303 302 301 299 297 294 292 290 290 292 294 298 302 302 300 300 303 308 312 317 322 326 329 332 332 325 319 316 309 299 289 272 254 236
295 300 301 296 289 281 268 252 266 307 322 323 312 293 280 279 280 281 285 288 291 295 298 301 303 304 305 306 307 307 308 310 312 312 312 312 312 313 314 315 316 316 316 315 312 308 304 303 303 304 304 304 303 301 298 295 292 290 290 292 293 296 299 301 301 299 301 306 310 313 318 323 327 331 335 338 334 325 320 315 302 285 267 251 237
296 301 301 294 287 279 266 253 270 302 316 321 312 291 277 278 282 286 291 293 295 298 300 301 303 304 305 306 307 307 309 310 311 311 311 311 312 313 315 315 316 316 315 313 309 305 303 304 305 305 304 304 302 299 295 293 291 291 293 295 296 297 299 301 301 301 303 307 311 314 318 322 327 332 337 342 340 328 318 315 306 287 274 264 248
296 300 301 296 290 283 269 257 266 288 305 313 308 288 278 285 290 294 297 298 298 300 301 303 304 305 306 307 307 307 309 310 310 310 310 310 311 312 314 314 315 315 313 310 307 305 305 306 307 306 304 303 301 297 292 291 292 293 294 296 296 297 300 301 301 302 303 307 310 312 316 321 326 332 338 343 343 332 318 313 307 288 279 275 252
296 300 301 296 291 282 265 256 265 282 298 307 300 284 285 293 295 296 298 299 300 302 303 304 305 305 305 305 306 307 308 309 309 309 308 308 309 311 312 312 312 311 310 308 308 307 307 308 308 307 305 302 298 293 289 288 292 294 295 296 297 299 300 301 301 302 303 306 309 310 315 321 326 333 339 343 344 337 320 313 310 290 273 280 252
297 301 300 291 281 272 265 269 279 290 299 301 291 282 290 296 296 297 299 299 300 300 301 302 302 302 303 304 305 306 307 307 308 307 305 306 307 309 309 308 308 308 308 308 309 308 308 308 308 308 307 302 295 287 283 284 289 293 295 296 297 298 300 301 301 302 303 306 308 311 316 321 326 332 338 341 344 341 324 312 312 291 251 262 256
297 299 295 286 278 274 279 286 290 292 294 291 283 283 292 296 296 296 296 295 295 296 298 300 301 302 303 304 304 305 305 306 306 304 303 304 305 306 306 305 305 306 307 308 308 308 307 308 308 309 310 306 295 283 277 279 285 291 294 295 295 297 300 301 302 303 304 306 308 310 315 321 325 331 336 339 343 344 331 312 313 299 236 239 252
293 291 288 285 282 282 286 289 288 287 286 282 281 287 293 295 294 294 292 292 293 296 298 301 302 303 303 303 303 303 304 304 303 301 300 302 304 304 304 303 303 304 305 306 307 307 307 308 308 309 311 310 299 284 276 277 282 287 292 294 294 296 299 301 302 304 305 307 309 311 315 321 325 329 333 336 340 345 340 321 318 318 248 229 240
287 284 282 282 282 283 285 286 284 283 281 281 285 290 292 292 293 293 292 293 295 297 299 301 302 302 301 301 301 302 303 303 301 299 298 300 302 303 302 301 301 302 303 303 305 305 306 307 308 308 309 310 306 293 283 280 283 285 288 292 294 295 298 300 302 305 306 307 310 312 315 320 323 325 330 333 337 344 347 336 323 325 288 232 231
283 281 280 280 280 280 282 283 284 284 283 285 289 292 292 292 292 292 293 295 296 297 298 300 301 300 299 299 300 302 303 301 298 297 298 300 302 301 300 299 299 300 301 301 302 304 305 306 308 307 306 308 309 304 294 287 284 282 284 287 290 293 296 298 299 303 306 307 310 312 313 317 320 322 326 331 336 342 348 347 334 329 317 257 231
282 281 281 281 281 282 284 287 288 288 288 288 290 290 290 291 291 291 293 294 295 296 298 299 299 298 298 299 301 302 302 299 297 297 298 300 301 300 298 298 298 298 299 299 300 301 302 304 306 306 304 304 305 305 302 295 286 278 277 281 286 289 292 295 297 300 304 306 308 310 311 314 318 321 324 329 335 340 345 350 350 336 323 289 234
283 283 283 283 285 288 291 292 292 290 288 287 287 287 288 289 290 292 293 293 294 296 297 297 297 297 298 299 301 301 300 298 297 297 298 299 299 298 297 298 298 298 298 299 299 300 300 302 303 304 303 302 302 302 304 303 294 281 274 277 283 286 288 292 295 298 302 305 306 308 310 313 317 321 323 327 332 337 341 348 354 345 312 294 258
285 284 284 285 287 290 292 292 292 290 287 285 285 286 287 289 292 293 293 293 295 296 296 296 296 296 298 299 300 299 299 297 296 296 297 298 297 296 296 297 297 297 297 297 298 298 299 300 301 302 302 302 302 302 303 304 301 290 279 275 278 281 284 290 294 297 301 304 306 308 311 313 316 320 322 324 329 333 337 344 353 355 333 285 277
282 281 283 285 287 287 287 289 290 289 286 285 286 287 289 292 294 293 293 294 296 296 295 295 296 296 297 298 298 297 296 294 294 295 297 297 295 294 295 296 296 295 295 295 296 296 296 297 298 300 301 301 302 302 302 300 299 295 286 279 278 279 282 287 292 296 299 303 305 308 311 313 315 318 321 323 325 329 334 340 347 355 1 317 269
279 279 283 285 284 284 285 286 286 285 283 284 286 289 292 294 294 292 293 295 295 295 295 295 295 296 297 296 295 294 293 292 293 295 296 296 294 293 293 293 293 292 292 292 293 293 293 293 294 296 298 299 299 299 299 298 296 294 291 286 284 284 285 287 291 294 297 300 303 305 308 312 315 316 318 320 321 324 330 337 342 349 359 7 287
278 279 281 282 282 284 286 285 282 279 280 283 287 291 293 293 293 293 294 294 294 294 295 295 296 297 296 295 294 292 290 290 291 294 295 295 294 293 291 291 290 290 290 290 290 290 290 290 292 293 295 297 297 296 296 296 296 294 293 290 288 288 289 289 291 293 295 296 299 301 304 308 312 314 315 316 318 320 323 330 336 343 350 2 6
278 278 279 281 282 282 281 279 277 278 281 285 289 292 292 293 293 293 293 293 293 294 295 296 297 296 295 294 292 289 287 288 290 292 293 293 292 291 289 288 288 288 289 289 289 289 289 289 290 291 292 294 295 294 292 293 293 292 291 291 289 288 289 290 290 292 293 294 296 298 301 304 308 311 311 311 312 315 319 322 328 334 343 354 4
280 280 281 282 282 280 277 276 277 281 285 288 290 291 291 291 291 291 291 291 292 294 295 295 295 294 293 291 288 286 286 288 290 291 292 291 290 288 286 286 286 287 287 288 289 290 290 290 289 289 289 290 291 291 290 290 290 288 288 288 288 288 288 289 289 290 291 293 294 295 298 301 304 306 307 307 306 308 312 316 320 324 332 345 355
280 281 281 280 280 279 278 278 280 283 286 287 288 288 287 288 288 288 289 290 292 293 293 292 291 291 290 289 287 286 287 289 291 292 291 290 289 287 285 285 286 285 286 287 288 289 290 290 289 288 287 287 287 288 289 288 288 288 287 286 287 288 288 288 289 289 290 292 293 294 295 298 300 302 303 303 303 303 304 308 313 316 321 330 342
279 278 278 279 281 282 281 281 282 284 284 284 284 284 285 286 286 287 289 290 291 291 291 290 290 289 288 287 286 286 288 290 291 291 290 289 288 285 283 283 283 284 285 286 288 288 289 288 288 287 286 286 285 286 287 287 287 287 287 286 286 286 287 288 288 289 289 290 292 292 293 294 296 298 299 299 299 299 299 301 305 308 312 318 325
277 277 278 280 282 282 282 283 283 283 282 283 284 285 286 286 287 288 290 291 292 292 292 291 289 288 287 286 285 287 289 290 290 290 289 288 287 284 282 280 280 281 283 284 285 286 286 286 286 285 285 284 284 284 285 285 286 286 286 286 285 285 285 285 286 286 287 288 289 290 291 292 293 294 295 295 295 295 296 297 299 301 304 308 312
277 277 280 281 280 280 282 282 282 282 283 284 285 286 286 287 287 288 289 290 292 294 294 292 290 288 287 286 286 287 288 289 290 290 290 289 288 286 283 279 278 278 279 281 282 283 283 283 283 283 282 282 283 283 283 284 284 284 284 284 284 283 283 283 283 283 284 284 285 286 288 289 290 290 290 291 291 292 292 293 295 296 297 299 302
278 279 281 281 281 282 283 283 282 283 284 285 286 287 287 287 287 287 288 290 292 294 294 293 290 288 287 286 286 287 288 288 289 289 289 288 288 287 283 280 279 278 279 280 280 281 281 281 281 281 281 281 281 281 282 282 282 283 283 283 283 283 282 281 281 281 281 282 282 283 284 285 286 287 287 287 287 288 288 287 288 291 292 292 292
280 281 281 281 282 282 283 283 283 284 285 286 287 287 287 286 286 287 289 291 293 293 293 292 290 289 288 288 288 289 289 289 289 287 285 286 287 286 283 280 279 279 279 280 280 280 281 281 281 281 282 282 282 282 283 282 282 282 282 282 282 282 282 281 280 280 279 279 280 281 281 282 283 284 284 284 284 284 284 283 283 284 286 287 287
282 283 282 282 282 282 282 283 283 283 284 286 286 286 285 286 287 289 291 292 292 292 292 291 291 290 290 290 290 291 291 290 288 286 284 285 286 285 282 280 278 278 279 280 280 281 282 283 284 284 284 284 285 284 284 283 282 281 280 280 280 280 280 280 280 279 279 278 278 278 279 279 280 280 280 281 281 281 281 280 280 280 280 281 283
282 283 283 283 282 282 282 282 282 283 283 284 284 285 287 288 290 291 291 291 291 291 291 291 291 291 291 291 291 291 290 289 288 286 285 286 286 285 282 280 280 280 281 281 282 283 284 285 286 286 286 286 286 286 285 284 283 281 280 279 279 279 279 279 279 279 279 278 277 276 276 276 276 276 276 277 278 279 279 277 277 278 277 277 278
284 285 284 283 281 280 281 282 282 282 282 282 284 286 288 289 290 291 292 292 292 293 293 293 293 293 292 292 291 290 289 288 287 286 286 286 286 285 283 282 282 282 282 283 284 285 286 287 287 287 288 288 288 288 287 286 285 284 282 281 279 279 279 278 278 278 277 276 276 274 273 272 272 272 272 273 273 275 276 276 275 275 275 275 274
284 285 285 283 282 281 282 283 282 280 280 282 284 287 288 290 292 294 295 295 295 296 295 295 294 293 292 291 289 288 287 286 286 285 285 285 285 285 284 284 284 284 284 285 286 286 287 288 288 288 290 291 290 290 289 288 287 286 285 283 281 280 279 277 277 276 275 273 273 272 270 270 270 269 269 270 271 272 273 274 274 274 274 273 273
Height
5883 5882 5881 5880 5879 5878 5877 5877 5877 5876 5875 5875 5873 5871 5870 5868 5867 5866 5865 5864 5863 5862 5861 5859 5858 5857 5856 5854 5853 5851 5850 5848 5847 5845 5843 5841 5838 5836 5834 5833 5831 5829 5826 5824 5821 5819 5816 5813 5811 5809 5807 5805 5803 5800 5798 5796 5794 5791 5789 5786 5783 5781 5779 5776 5775 5774 5772 5770 5769 5767 5765 5765 5764 5763 5763 5764 5763 5762 5762 5763 5763 5764 5766 5769 5771
5880 5879 5877 5876 5875 5875 5874 5874 5874 5873 5872 5871 5870 5868 5867 5865 5864 5862 5861 5861 5860 5859 5858 5856 5854 5853 5852 5850 5849 5848 5846 5844 5843 5841 5839 5836 5834 5832 5830 5829 5827 5824 5822 5819 5816 5814 5811 5808 5806 5804 5802 5800 5797 5794 5792 5790 5788 5786 5783 5780 5778 5774 5772 5770 5768 5768 5767 5765 5763 5762 5760 5759 5759 5757 5757 5758 5759 5758 5757 5757 5756 5757 5758 5760 5763
5876 5875 5874 5873 5873 5872 5871 5870 5870 5869 5868 5867 5866 5865 5864 5862 5861 5859 5858 5858 5857 5856 5854 5852 5851 5849 5847 5846 5845 5844 5842 5840 5839 5837 5834 5832 5830 5828 5826 5824 5822 5820 5817 5815 5812 5809 5806 5803 5801 5799 5797 5795 5792 5789 5787 5785 5782 5780 5777 5774 5772 5769 5766 5763 5762 5762 5762 5761 5759 5757 5755 5754 5753 5752 5751 5752 5752 5752 5751 5751 5751 5751 5751 5752 5754
5873 5872 5871 5870 5869 5867 5866 5865 5865 5864 5864 5863 5862 5861 5860 5859 5857 5856 5855 5854 5854 5852 5850 5849 5847 5845 5844 5843 5842 5840 5839 5837 5835 5833 5831 5828 5826 5824 5822 5820 5818 5816 5813 5810 5807 5804 5801 5798 5795 5793 5791 5789 5787 5784 5781 5779 5776 5774 5772 5769 5766 5763 5760 5758 5757 5756 5756 5756 5755 5752 5750 5749 5748 5747 5746 5746 5746 5745 5744 5745 5745 5745 5745 5745 5746
5870 5868 5866 5866 5864 5862 5860 5860 5859 5859 5858 5858 5858 5857 5856 5854 5853 5852 5851 5851 5850 5849 5847 5845 5843 5842 5841 5840 5839 5837 5835 5833 5832 5830 5827 5825 5822 5820 5817 5815 5813 5811 5809 5805 5803 5800 5797 5794 5790 5788 5786 5784 5782 5779 5776 5773 5771 5769 5767 5764 5760 5758 5755 5753 5752 5751 5750 5750 5749 5748 5745 5744 5744 5742 5740 5740 5741 5739 5738 5737 5737 5737 5737 5737 5738
5867 5864 5862 5861 5859 5857 5855 5854 5853 5854 5853 5853 5853 5852 5851 5849 5848 5848 5847 5847 5846 5845 5843 5842 5840 5839 5838 5837 5836 5834 5832 5830 5828 5826 5823 5820 5818 5815 5812 5811 5809 5806 5804 5801 5798 5795 5792 5789 5786 5783 5781 5780 5778 5775 5772 5769 5766 5764 5761 5758 5755 5752 5750 5748 5747 5746 5745 5744 5743 5742 5741 5739 5738 5737 5734 5733 5733 5733 5732 5731 5731 5729 5728 5729 5730
5863 5860 5858 5856 5853 5850 5850 5850 5850 5850 5849 5848 5848 5848 5847 5846 5845 5844 5843 5843 5842 5841 5840 5838 5837 5835 5834 5833 5832 5830 5828 5826 5823 5821 5818 5815 5812 5809 5807 5806 5804 5801 5799 5796 5793 5791 5788 5785 5782 5779 5777 5776 5773 5771 5768 5765 5762 5759 5756 5753 5750 5747 5745 5744 5742 5740 5739 5738 5737 5736 5735 5734 5732 5730 5729 5727 5725 5724 5723 5723 5724 5722 5719 5719 5721
5859 5856 5852 5850 5848 5847 5847 5846 5845 5844 5844 5844 5843 5843 5843 5842 5841 5840 5839 5839 5838 5837 5836 5835 5833 5832 5830 5829 5827 5826 5824 5821 5818 5816 5813 5810 5807 5805 5803 5801 5799 5796 5794 5791 5788 5786 5784 5781 5778 5775 5773 5771 5768 5766 5763 5760 5757 5753 5750 5747 5744 5742 5740 5738 5737 5735 5734 5732 5731 5729 5728 5727 5726 5724 5722 5720 5719 5718 5715 5713 5714 5713 5711 5710 5711
5856 5852 5847 5846 5847 5845 5842 5838 5836 5837 5838 5839 5839 5839 5839 5838 5836 5835 5835 5835 5835 5833 5832 5831 5830 5828 5826 5824 5823 5822 5819 5816 5814 5811 5808 5805 5803 5801 5799 5797 5795 5792 5789 5786 5783 5781 5779 5776 5773 5770 5768 5765 5763 5760 5758 5755 5752 5749 5745 5742 5739 5737 5735 5733 5731 5730 5728 5727 5725 5723 5721 5720 5719 5717 5716 5714 5712 5711 5708 5704 5703 5702 5702 5702 5703
5851 5848 5844 5843 5842 5838 5834 5831 5830 5832 5834 5835 5835 5835 5835 5833 5832 5831 5831 5831 5831 5829 5828 5827 5826 5823 5820 5819 5818 5817 5815 5812 5809 5807 5804 5801 5799 5797 5795 5793 5790 5788 5784 5781 5778 5775 5773 5770 5767 5764 5762 5759 5757 5755 5752 5749 5746 5743 5740 5736 5734 5731 5729 5727 5726 5724 5722 5721 5720 5718 5715 5713 5711 5710 5710 5708 5705 5703 5700 5696 5693 5692 5691 5692 5695
5848 5844 5840 5837 5834 5831 5830 5829 5829 5830 5831 5831 5830 5830 5829 5828 5828 5828 5827 5827 5826 5825 5824 5823 5821 5818 5816 5815 5814 5813 5810 5808 5805 5802 5799 5797 5795 5793 5791 5788 5786 5783 5780 5777 5773 5770 5767 5764 5761 5758 5756 5754 5751 5748 5746 5743 5740 5737 5734 5730 5728 5726 5723 5722 5720 5718 5717 5716 5714 5712 5709 5707 5705 5703 5702 5701 5698 5696 5692 5688 5685 5682 5681 5682 5685
5843 5839 5836 5833 5831 5830 5831 5831 5829 5828 5827 5826 5825 5826 5825 5824 5824 5824 5824 5823 5822 5821 5820 5819 5817 5814 5812 5810 5810 5809 5806 5804 5801 5798 5795 5793 5791 5789 5787 5784 5781 5778 5775 5772 5769 5765 5762 5758 5755 5752 5750 5747 5745 5742 5739 5737 5734 5731 5728 5724 5722 5720 5718 5716 5715 5713 5712 5710 5709 5706 5704 5701 5699 5696 5694 5692 5691 5687 5684 5681 5676 5673 5672 5672 5675
5838 5835 5834 5833 5832 5832 5831 5829 5827 5826 5824 5822 5821 5821 5821 5820 5820 5820 5819 5819 5818 5817 5816 5815 5813 5811 5808 5806 5806 5805 5802 5799 5796 5793 5791 5788 5786 5784 5781 5778 5775 5772 5769 5766 5763 5760 5756 5753 5750 5747 5744 5741 5739 5736 5733 5730 5727 5724 5721 5719 5716 5714 5712 5710 5709 5708 5706 5704 5703 5701 5698 5695 5692 5689 5686 5683 5682 5679 5676 5674 5669 5664 5663 5663 5665
5833 5832 5830 5829 5828 5828 5827 5825 5824 5822 5820 5818 5817 5816 5816 5816 5816 5815 5814 5814 5814 5813 5812 5810 5809 5807 5805 5803 5801 5800 5797 5794 5791 5788 5786 5783 5781 5778 5775 5772 5769 5766 5763 5760 5757 5754 5750 5747 5744 5741 5738 5736 5733 5730 5727 5725 5721 5718 5715 5713 5711 5709 5707 5705 5703 5702 5701 5698 5696 5694 5692 5688 5685 5682 5678 5675 5674 5671 5667 5665 5662 5657 5655 5655 5657
5829 5828 5827 5824 5822 5821 5821 5820 5819 5817 5815 5813 5812 5811 5811 5811 5811 5810 5810 5810 5809 5808 5807 5806 5805 5803 5801 5799 5797 5794 5792 5789 5786 5784 5781 5778 5775 5772 5769 5766 5763 5760 5756 5753 5750 5747 5743 5740 5738 5736 5733 5730 5727 5724 5722 5719 5716 5713 5710 5707 5706 5704 5702 5700 5699 5697 5695 5692 5690 5688 5685 5682 5678 5675 5671 5667 5665 5663 5658 5655 5654 5649 5647 5648 5649
5826 5825 5822 5818 5816 5815 5814 5812 5812 5811 5810 5809 5809 5807 5806 5807 5807 5806 5806 5806 5805 5804 5803 5801 5800 5798 5796 5794 5792 5789 5786 5783 5781 5779 5776 5772 5769 5766 5762 5759 5756 5753 5750 5746 5743 5740 5737 5734 5732 5730 5728 5724 5721 5718 5716 5714 5710 5707 5705 5703 5702 5700 5698 5696 5694 5692 5690 5688 5685 5682 5679 5676 5672 5668 5664 5659 5656 5654 5649 5647 5646 5642 5640 5641 5643
5822 5819 5815 5812 5810 5808 5805 5804 5806 5807 5806 5805 5804 5803 5803 5804 5804 5803 5802 5802 5801 5800 5798 5796 5795 5793 5791 5789 5786 5783 5780 5778 5775 5773 5769 5766 5762 5759 5755 5752 5749 5746 5743 5740 5737 5734 5731 5728 5726 5724 5721 5718 5716 5713 5710 5708 5705 5702 5700 5699 5698 5696 5694 5692 5690 5688 5686 5683 5680 5677 5674 5671 5667 5662 5657 5652 5649 5646 5641 5639 5639 5636 5634 5634 5636
5817 5814 5809 5805 5803 5800 5798 5798 5800 5801 5800 5799 5799 5800 5800 5800 5800 5799 5798 5797 5796 5795 5793 5792 5790 5788 5786 5784 5781 5778 5775 5772 5769 5766 5762 5758 5755 5751 5748 5746 5743 5740 5737 5734 5730 5727 5725 5722 5720 5718 5716 5713 5710 5707 5705 5702 5699 5697 5696 5695 5693 5692 5690 5688 5686 5684 5681 5679 5675 5673 5670 5666 5662 5657 5652 5647 5644 5640 5635 5632 5632 5631 5629 5628 5630
5811 5808 5802 5799 5798 5794 5792 5793 5794 5795 5795 5795 5796 5796 5796 5796 5795 5794 5793 5792 5792 5790 5789 5787 5785 5782 5781 5778 5775 5772 5769 5766 5763 5760 5755 5751 5748 5745 5743 5740 5737 5734 5731 5728 5724 5721 5719 5716 5714 5712 5710 5708 5705 5702 5699 5697 5695 5693 5692 5690 5689 5687 5686 5684 5682 5680 5678 5675 5672 5669 5666 5662 5658 5653 5648 5644 5640 5636 5631 5626 5625 5626 5625 5624 5626
5805 5802 5800 5799 5796 5791 5788 5789 5790 5791 5791 5792 5792 5791 5791 5791 5791 5789 5788 5788 5788 5786 5784 5782 5779 5777 5774 5772 5769 5766 5764 5760 5757 5753 5749 5746 5743 5740 5738 5735 5732 5729 5725 5722 5719 5715 5713 5710 5708 5706 5705 5702 5700 5697 5694 5692 5690 5689 5687 5686 5685 5683 5682 5680 5678 5676 5675 5672 5669 5666 5663 5660 5656 5650 5646 5641 5636 5632 5628 5624 5621 5620 5620 5621 5622
5800 5798 5798 5796 5793 5789 5786 5786 5787 5788 5788 5788 5788 5788 5787 5787 5785 5784 5783 5783 5782 5780 5778 5776 5774 5771 5769 5766 5763 5761 5759 5755 5751 5747 5744 5741 5738 5736 5733 5730 5727 5724 5720 5717 5714 5711 5708 5705 5703 5701 5700 5697 5695 5692 5690 5688 5686 5684 5683 5682 5681 5679 5678 5676 5674 5672 5670 5669 5666 5663 5660 5657 5653 5648 5643 5637 5632 5627 5624 5621 5619 5617 5616 5616 5617
5795 5793 5792 5790 5788 5786 5784 5784 5785 5786 5786 5786 5785 5783 5782 5781 5780 5779 5778 5778 5776 5774 5773 5770 5768 5767 5765 5762 5758 5755 5753 5749 5746 5742 5740 5737 5734 5731 5728 5725 5722 5719 5715 5711 5708 5706 5703 5700 5698 5696 5695 5693 5690 5688 5685 5683 5681 5680 5679 5678 5677 5675 5674 5673 5671 5668 5667 5665 5663 5660 5657 5654 5651 5646 5640 5634 5628 5624 5621 5618 5616 5614 5613 5612 5613
5790 5788 5786 5784 5784 5783 5782 5782 5782 5782 5782 5781 5780 5777 5775 5775 5774 5773 5772 5772 5771 5769 5768 5766 5764 5762 5760 5757 5753 5750 5747 5744 5741 5739 5735 5732 5729 5726 5723 5720 5717 5713 5710 5706 5703 5701 5699 5696 5694 5692 5691 5688 5686 5683 5681 5679 5678 5677 5676 5675 5673 5672 5670 5669 5667 5665 5663 5662 5660 5657 5654 5651 5647 5643 5637 5631 5625 5621 5618 5616 5613 5611 5611 5610 5611
5784 5782 5780 5778 5777 5778 5778 5777 5776 5776 5775 5774 5772 5771 5769 5769 5769 5768 5767 5767 5766 5765 5763 5761 5759 5756 5753 5750 5748 5745 5742 5739 5737 5734 5730 5727 5725 5722 5718 5715 5711 5708 5705 5702 5699 5697 5695 5693 5691 5689 5687 5685 5682 5679 5677 5676 5675 5674 5673 5671 5670 5668 5667 5665 5663 5662 5660 5658 5656 5654 5650 5647 5644 5639 5634 5628 5622 5618 5616 5613 5611 5609 5609 5609 5610
5779 5777 5775 5773 5772 5772 5773 5772 5771 5769 5768 5767 5766 5765 5764 5763 5763 5763 5763 5762 5761 5760 5757 5755 5753 5750 5747 5744 5743 5741 5738 5735 5731 5728 5725 5722 5719 5716 5713 5709 5706 5703 5700 5698 5696 5694 5692 5690 5688 5686 5684 5681 5678 5676 5674 5673 5672 5671 5670 5668 5667 5665 5663 5662 5660 5659 5657 5655 5653 5650 5648 5644 5640 5636 5631 5625 5620 5616 5613 5611 5609 5607 5607 5607 5608
5773 5771 5770 5768 5766 5766 5768 5768 5766 5764 5762 5762 5761 5760 5758 5758 5759 5759 5758 5757 5755 5754 5751 5749 5747 5744 5742 5739 5737 5735 5732 5729 5726 5723 5720 5717 5714 5711 5708 5705 5702 5699 5697 5695 5693 5691 5689 5687 5684 5682 5680 5678 5675 5673 5671 5670 5669 5668 5666 5665 5663 5662 5660 5659 5658 5656 5654 5652 5650 5648 5645 5642 5638 5634 5629 5623 5617 5613 5611 5609 5607 5606 5605 5605 5606
5768 5766 5764 5762 5759 5759 5761 5762 5762 5760 5759 5758 5757 5756 5755 5755 5755 5754 5753 5751 5749 5747 5745 5742 5740 5738 5735 5733 5731 5729 5726 5723 5720 5718 5715 5712 5709 5706 5703 5701 5698 5696 5694 5692 5690 5687 5685 5683 5681 5679 5676 5674 5672 5670 5669 5667 5666 5664 5663 5662 5660 5659 5657 5656 5655 5653 5652 5650 5648 5645 5643 5640 5636 5632 5627 5621 5616 5612 5609 5607 5605 5604 5603 5602 5601
5761 5760 5758 5757 5755 5754 5755 5757 5757 5756 5755 5754 5753 5752 5751 5750 5750 5748 5746 5744 5742 5740 5738 5736 5734 5732 5730 5728 5726 5723 5720 5717 5715 5712 5709 5707 5704 5702 5699 5697 5695 5693 5690 5688 5686 5684 5681 5679 5677 5675 5673 5670 5668 5667 5665 5664 5663 5661 5660 5658 5657 5656 5654 5653 5652 5651 5649 5648 5646 5643 5640 5637 5634 5630 5625 5620 5615 5611 5608 5605 5603 5601 5600 5599 5598
5756 5754 5754 5754 5753 5751 5751 5752 5752 5750 5749 5748 5748 5747 5746 5746 5744 5742 5740 5738 5736 5735 5733 5731 5729 5727 5725 5723 5720 5718 5715 5712 5709 5707 5704 5702 5699 5697 5695 5693 5691 5689 5687 5684 5682 5680 5678 5676 5674 5672 5669 5667 5665 5663 5662 5661 5660 5658 5657 5656 5654 5653 5652 5651 5649 5648 5647 5645 5643 5641 5638 5635 5631 5628 5624 5620 5615 5610 5607 5604 5602 5600 5598 5598 5598
5751 5750 5750 5750 5748 5747 5747 5747 5746 5745 5744 5744 5743 5743 5742 5740 5739 5737 5735 5733 5732 5730 5728 5726 5724 5722 5720 5717 5715 5712 5709 5707 5704 5702 5699 5697 5695 5693 5691 5689 5687 5685 5682 5680 5678 5676 5674 5672 5670 5668 5666 5663 5661 5659 5658 5658 5657 5655 5654 5653 5652 5650 5649 5648 5647 5646 5644 5643 5641 5639 5636 5633 5630 5626 5623 5620 5616 5611 5606 5603 5601 5599 5597 5597 5598
5747 5746 5746 5745 5744 5743 5743 5743 5741 5740 5740 5739 5739 5738 5736 5734 5733 5732 5730 5728 5726 5724 5723 5721 5718 5716 5714 5712 5709 5707 5704 5702 5699 5697 5695 5692 5690 5688 5686 5685 5683 5680 5678 5676 5674 5672 5670 5669 5667 5664 5662 5660 5657 5656 5655 5654 5653 5652 5651 5650 5649 5648 5647 5646 5644 5643 5642 5640 5638 5636 5634 5631 5628 5625 5622 5619 5615 5611 5606 5603 5601 5598 5597 5597 5598
5743 5742 5741 5741 5740 5739 5739 5739 5737 5736 5735 5734 5733 5731 5730 5728 5726 5725 5723 5722 5720 5718 5717 5715 5713 5711 5709 5707 5704 5702 5699 5697 5694 5691 5689 5688 5685 5683 5682 5680 5678 5676 5674 5672 5670 5668 5667 5665 5663 5661 5659 5657 5655 5653 5652 5651 5650 5649 5648 5647 5646 5645 5644 5643 5642 5641 5639 5638 5636 5634 5632 5629 5626 5624 5621 5618 5615 5611 5606 5603 5600 5598 5597 5597 5597
5738 5737 5736 5736 5735 5734 5734 5733 5731 5730 5729 5727 5725 5724 5722 5721 5719 5718 5717 5716 5714 5712 5711 5709 5707 5705 5703 5701 5699 5696 5694 5691 5688 5686 5684 5682 5680 5679 5677 5675 5674 5672 5670 5668 5666 5665 5663 5661 5659 5658 5656 5654 5652 5650 5649 5648 5647 5646 5645 5644 5643 5642 5641 5640 5639 5638 5637 5635 5634 5632 5630 5628 5625 5623 5620 5617 5614 5610 5606 5603 5600 5599 5597 5596 5597
5733 5732 5730 5729 5728 5727 5726 5725 5724 5723 5722 5720 5719 5717 5716 5714 5713 5713 5711 5710 5708 5706 5705 5703 5701 5700 5697 5695 5693 5691 5688 5685 5683 5681 5679 5678 5676 5674 5672 5671 5669 5667 5666 5664 5662 5661 5659 5657 5655 5654 5653 5651 5650 5648 5646 5644 5643 5642 5642 5641 5640 5639 5638 5637 5637 5635 5634 5633 5632 5630 5629 5627 5624 5622 5619 5616 5613 5610 5606 5603 5600 5598 5598 5596 5596
5726 5725 5723 5721 5721 5720 5720 5719 5718 5717 5715 5714 5712 5711 5710 5709 5708 5707 5706 5704 5702 5700 5698 5697 5695 5693 5691 5689 5687 5685 5682 5680 5678 5676 5675 5673 5671 5669 5667 5666 5664 5663 5661 5660 5658 5657 5655 5653 5652 5650 5649 5648 5647 5645 5643 5642 5640 5639 5638 5638 5637 5636 5635 5635 5634 5633 5632 5630 5629 5628 5627 5625 5623 5621 5618 5615 5612 5610 5607 5603 5600 5598 5598 5597 5596
5719 5717 5715 5715 5715 5714 5714 5713 5712 5710 5709 5708 5707 5705 5704 5703 5702 5701 5699 5698 5696 5694 5692 5690 5688 5686 5685 5683 5681 5679 5676 5675 5673 5672 5670 5668 5666 5665 5663 5662 5660 5659 5657 5656 5654 5653 5651 5650 5648 5647 5646 5644 5643 5642 5641 5639 5637 5636 5635 5634 5634 5633 5633 5632 5631 5630 5629 5628 5627 5626 5625 5623 5621 5619 5617 5615 5612 5610 5607 5605 5601 5599 5597 5597 5597
5711 5710 5709 5709 5709 5708 5708 5707 5706 5705 5703 5702 5701 5700 5699 5698 5697 5695 5693 5692 5690 5688 5686 5684 5682 5680 5678 5676 5675 5673 5671 5669 5668 5667 5665 5664 5662 5660 5659 5658 5656 5655 5653 5652 5650 5649 5648 5646 5645 5643 5642 5641 5640 5639 5638 5636 5635 5634 5632 5632 5631 5630 5629 5629 5628 5627 5626 5625 5624 5624 5622 5621 5619 5618 5616 5614 5611 5609 5607 5605 5602 5599 5597 5596 5596
5705 5704 5704 5704 5703 5703 5702 5702 5701 5700 5698 5697 5696 5695 5694 5693 5691 5689 5687 5685 5683 5681 5679 5677 5675 5673 5672 5670 5669 5667 5666 5664 5663 5662 5660 5659 5657 5656 5655 5654 5652 5651 5649 5648 5647 5645 5644 5643 5642 5640 5639 5638 5637 5636 5635 5633 5632 5631 5630 5629 5628 5627 5626 5625 5624 5624 5623 5623 5622 5621 5620 5619 5618 5616 5615 5613 5611 5609 5607 5605 5603 5601 5598 5597 5596
5700 5699 5698 5698 5698 5698 5697 5696 5695 5694 5693 5691 5690 5689 5688 5686 5685 5683 5681 5679 5677 5675 5673 5671 5669 5667 5666 5664 5663 5662 5660 5659 5658 5656 5655 5654 5653 5651 5650 5649 5648 5646 5645 5644 5643 5642 5640 5639 5638 5637 5635 5634 5633 5632 5631 5630 5629 5628 5627 5626 5625 5624 5623 5622 5621 5621 5620 5620 5620 5619 5618 5617 5616 5615 5613 5612 5610 5609 5607 5605 5603 5601 5599 5598 5596
5694 5694 5694 5693 5693 5693 5692 5691 5689 5688 5687 5686 5684 5683 5681 5679 5678 5676 5674 5672 5670 5668 5666 5665 5663 5661 5660 5658 5657 5656 5655 5654 5653 5651 5650 5649 5648 5646 5645 5644 5643 5641 5640 5639 5638 5637 5636 5635 5634 5633 5632 5631 5630 5629 5628 5627 5626 5625 5624 5623 5622 5621 5620 5620 5619 5618 5618 5617 5617 5616 5615 5615 5614 5613 5612 5611 5610 5608 5606 5605 5603 5602 5600 5598 5597
5688 5688 5688 5688 5687 5686 5685 5684 5683 5682 5681 5680 5678 5676 5674 5673 5671 5669 5667 5666 5663 5662 5660 5659 5657 5655 5654 5653 5651 5651 5650 5649 5648 5646 5645 5644 5643 5642 5640 5639 5638 5637 5636 5635 5634 5633 5632 5631 5631 5630 5629 5627 5626 5625 5625 5624 5623 5622 5621 5620 5619 5618 5618 5617 5616 5615 5615 5614 5614 5613 5613 5612 5612 5611 5610 5609 5608 5607 5606 5604 5603 5601 5600 5599 5597
5681 5681 5681 5680 5680 5679 5679 5678 5677 5676 5675 5673 5672 5670 5668 5667 5665 5663 5661 5659 5657 5656 5654 5653 5651 5650 5649 5648 5647 5646 5645 5644 5642 5641 5640 5639 5638 5637 5636 5634 5633 5632 5631 5630 5629 5629 5628 5627 5626 5626 5625 5624 5623 5622 5621 5620 5620 5619 5618 5617 5616 5615 5615 5614 5614 5613 5612 5611 5611 5611 5610 5610 5609 5609 5608 5607 5606 5605 5604 5603 5602 5601 5600 5599 5598
5674 5674 5673 5673 5673 5672 5672 5671 5670 5669 5668 5667 5665 5663 5662 5661 5659 5657 5655 5653 5651 5649 5648 5647 5646 5645 5644 5643 5642 5641 5640 5639 5637 5636 5635 5634 5634 5633 5631 5630 5629 5628 5627 5626 5625 5624 5624 5623 5622 5622 5621 5620 5619 5619 5618 5617 5616 5615 5615 5614 5613 5612 5612 5611 5611 5610 5609 5609 5608 5608 5607 5607 5607 5606 5606 5605 5604 5603 5602 5602 5601 5600 5599 5598 5598
5667 5667 5667 5666 5666 5665 5665 5664 5664 5662 5661 5660 5658 5657 5655 5654 5652 5650 5649 5647 5646 5644 5642 5641 5640 5639 5639 5638 5637 5636 5635 5634 5632 5631 5630 5629 5629 5628 5627 5626 5625 5624 5622 5621 5621 5620 5619 5619 5618 5618 5617 5616 5616 5615 5614 5613 5613 5612 5611 5611 5610 5609 5609 5608 5608 5607 5607 5606 5605 5605 5604 5604 5604 5603 5603 5603 5602 5601 5600 5600 5599 5599 5598 5598 5597
5660 5660 5660 5660 5659 5659 5659 5658 5656 5655 5654 5652 5651 5650 5648 5648 5646 5645 5643 5642 5641 5639 5638 5636 5635 5634 5634 5633 5632 5631 5630 5629 5627 5625 5624 5623 5623 5623 5622 5621 5620 5619 5618 5617 5617 5616 5615 5615 5614 5614 5613 5613 5612 5611 5610 5610 5609 5608 5608 5607 5607 5606 5605 5605 5604 5604 5603 5603 5602 5602 5601 5601 5601 5600 5600 5600 5600 5599 5598 5598 5597 5597 5597 5596 5596
5652 5653 5653 5653 5653 5652 5652 5650 5649 5648 5647 5646 5645 5643 5642 5642 5641 5640 5639 5637 5636 5635 5633 5632 5631 5630 5629 5628 5627 5626 5625 5624 5622 5621 5619 5617 5617 5617 5617 5616 5615 5614 5614 5613 5612 5612 5611 5611 5610 5610 5609 5608 5608 5607 5607 5606 5605 5605 5604 5603 5603 5602 5602 5601 5601 5600 5600 5599 5599 5599 5598 5598 5598 5597 5597 5597 5597 5596 5596 5596 5595 5594 5594 5594 5594
5647 5647 5647 5647 5646 5645 5644 5643 5642 5642 5640 5640 5639 5638 5637 5637 5636 5635 5634 5633 5631 5630 5629 5628 5626 5625 5623 5622 5621 5620 5620 5619 5617 5616 5614 5612 5612 5612 5612 5611 5610 5610 5609 5608 5608 5607 5607 5607 5606 5606 5605 5604 5604 5603 5602 5602 5601 5600 5600 5599 5598 5598 5597 5597 5597 5597 5596 5596 5596 5595 5595 5594 5594 5594 5593 5593 5594 5593 5593 5593 5593 5593 5592 5592 5592
5643 5642 5642 5641 5640 5639 5638 5638 5637 5636 5635 5635 5634 5633 5632 5632 5631 5630 5629 5628 5627 5625 5624 5623 5621 5620 5618 5617 5616 5615 5614 5613 5612 5611 5609 5608 5608 5608 5607 5607 5606 5605 5605 5604 5604 5603 5603 5603 5602 5601 5601 5600 5599 5599 5598 5597 5597 5596 5595 5594 5594 5593 5593 5593 5593 5593 5592 5592 5592 5592 5591 5591 5591 5590 5590 5590 5590 5590 5590 5590 5590 5590 5590 5589 5589
5638 5637 5637 5636 5635 5634 5633 5633 5632 5631 5631 5630 5629 5629 5628 5627 5626 5626 5624 5623 5622 5620 5619 5618 5616 5615 5614 5613 5612 5610 5609 5608 5607 5606 5605 5604 5604 5604 5603 5602 5602 5601 5601 5600 5600 5599 5599 5599 5598 5597 5596 5596 5595 5594 5593 5592 5592 5591 5590 5590 5589 5589 5588 5588 5588 5588 5588 5588 5588 5588 5588 5587 5587 5587 5587 5587 5587 5587 5586 5587 5587 5587 5587 5587 5587
5633 5632 5631 5630 5630 5629 5629 5628 5627 5627 5626 5626 5625 5624 5623 5622 5621 5620 5619 5618 5616 5615 5613 5612 5611 5610 5609 5608 5607 5606 5605 5604 5603 5602 5601 5600 5600 5599 5599 5598 5598 5597 5597 5596 5596 5595 5595 5595 5594 5593 5592 5591 5590 5590 5589 5588 5587 5587 5586 5586 5585 5584 5584 5584 5584 5584 5584 5584 5584 5584 5584 5584 5584 5584 5584 5584 5583 5583 5583 5583 5584 5584 5584 5584 5584
5628 5627 5626 5626 5625 5625 5624 5624 5623 5622 5622 5621 5620 5619 5618 5618 5616 5615 5614 5612 5610 5609 5608 5607 5606 5605 5604 5603 5602 5601 5601 5600 5599 5598 5597 5597 5596 5595 5595 5594 5594 5593 5593 5592 5592 5591 5591 5591 5590 5589 5588 5587 5586 5585 5585 5584 5584 5583 5583 5582 5581 5581 5580 5580 5580 5580 5580 5580 5580 5580 5580 5580 5581 5581 5580 5580 5580 5580 5580 5580 5581 5581 5581 5581 5581